This is the latest recevied weather packets stored in our database for station/object N6GPM. If no packets are shown the sender has not sent any weather packets the latest 10 day(s).
| Time | Temp. | Humidity | Pressure | Rain* | Wind** | Luminosity | Snow |
|---|---|---|---|---|---|---|---|
| 1787704877 | 35.56° C | 28% | 1016.8 hPa | 0 mm | - | 227 W/m² | - |
| 1787704574 | 35.56° C | 28% | 1016.8 hPa | 0 mm | - | 245 W/m² | - |
| 1787704269 | 35.56° C | 27% | 1016.7 hPa | 0 mm | - | 264 W/m² | - |
| 1787703969 | 35.56° C | 28% | 1016.6 hPa | 0 mm | - | 285 W/m² | - |
| 1787703664 | 35.56° C | 28% | 1016.7 hPa | 0 mm | - | 306 W/m² | - |
| 1787703359 | 36.11° C | 27% | 1016.6 hPa | 0 mm | - | 325 W/m² | - |
| 1787703053 | 36.11° C | 28% | 1016.7 hPa | 0 mm | - | 346 W/m² | - |
| 1787702750 | 36.11° C | 27% | 1016.7 hPa | 0 mm | - | 366 W/m² | - |
| 1787702445 | 36.11° C | 27% | 1016.7 hPa | 0 mm | - | 389 W/m² | - |
| 1787702144 | 36.11° C | 26% | 1016.7 hPa | 0 mm | - | 410 W/m² | - |
| 1787701835 | 36.11° C | 27% | 1016.7 hPa | 0 mm | - | 436 W/m² | - |
| 1787701530 | 35.56° C | 27% | 1016.8 hPa | 0 mm | - | 458 W/m² | - |
| 1787701226 | 36.11° C | 26% | 1016.8 hPa | 0 mm | - | 476 W/m² | - |
| 1787700921 | 36.67° C | 26% | 1016.9 hPa | 0 mm | - | 496 W/m² | - |
| 1787700617 | 36.67° C | 26% | 1016.8 hPa | 0 mm | - | 517 W/m² | - |
| 1787700313 | 36.67° C | 25% | 1016.8 hPa | 0 mm | - | 539 W/m² | - |
| 1787700009 | 36.67° C | 27% | 1017 hPa | 0 mm | - | 558 W/m² | - |
| 1787699704 | 36.67° C | 27% | 1017 hPa | 0 mm | - | 575 W/m² | - |
| 1787699400 | 37.22° C | 26% | 1017.2 hPa | 0 mm | - | 595 W/m² | - |
| 1787699095 | 36.67° C | 25% | 1017.2 hPa | 0 mm | - | 615 W/m² | - |
| 1787698790 | 36.11° C | 28% | 1017.3 hPa | 0 mm | - | 630 W/m² | - |
| 1787698487 | 36.11° C | 27% | 1017 hPa | 0 mm | - | 647 W/m² | - |
| 1787698182 | 36.67° C | 27% | 1017.3 hPa | 0 mm | - | 669 W/m² | - |
| 1787697877 | 36.67° C | 27% | 1017.4 hPa | 0 mm | - | 686 W/m² | - |
| 1787697572 | 36.67° C | 29% | 1017.3 hPa | 0 mm | - | 705 W/m² | - |
* Rain latest hour (hover to see other rain measurements)
** Current wind speed in m/s (hover to see current wind gust speed)